Simultaneous Nadir Overpasses (SNOs) Predictions

Prediction of SNOs between FY3D and AQUA Satellite Orbit:

Table of predicted SNOs for the next 14.0 days since TLE Epoch: 9/26/2025
Index Date (FY3D) Time (FY3D) Lat,Lon (FY3D) SZA (FY3D ) Date (AQUA) Time (AQUA) Lat,Lon (AQUA) SZA (AQUA ) Distance(km) Time Diff (sec)
1 09/27/2025 16:09:34 -79.59, 107.98 98.47 09/27/2025 16:10:45 -79.60, 107.95 98.48 0.56 71
2 09/27/2025 17:00:12 79.38, -82.75 81.29 09/27/2025 16:59:57 79.38, -82.77 81.29 0.40 15
3 09/30/2025 01:40:14 -79.58, -34.50 97.56 09/30/2025 01:41:14 -79.58, -34.45 97.58 1.09 60
4 09/30/2025 02:30:52 79.37, 134.74 82.20 09/30/2025 02:30:26 79.36, 134.79 82.20 1.23 26
5 10/02/2025 11:10:53 -79.54,-176.75 96.69 10/02/2025 11:11:41 -79.54,-176.71 96.70 0.98 48
6 10/02/2025 12:01:31 79.33, -7.56 83.09 10/02/2025 12:00:53 79.33, -7.51 83.08 1.09 38
7 10/04/2025 20:41:31 -79.48, 41.23 95.84 10/04/2025 20:42:06 -79.48, 41.18 95.84 0.99 35
8 10/04/2025 21:32:09 79.27,-149.63 83.94 10/04/2025 21:31:18 79.27,-149.67 83.94 0.81 51
9 10/07/2025 06:12:11 -79.48,-101.41 94.92 10/07/2025 06:12:31 -79.48,-101.33 94.93 1.83 20
10 10/07/2025 07:02:49 79.27, 67.71 84.86 10/07/2025 07:01:43 79.27, 67.80 84.86 1.96 66



Historial Predications of SNOs between FY3D and AQUA
